Content
SEND FEEDBACK

Daily
Averages
Monthly
Summary
Philippines

QUEZON CITY, PHILIPPINES


Home > Asia > Philippines
Elevation: 46 meters     Latitude: 14 39N     Longitude: 121 03E

WEATHER
 
SELECT A DAY
Number of Records: 178,821;   Date Range: 7/1/96 - 12/16/14
 
SHARE

PRINT THIS DATA

[ ← Previous Day ]
WEATHER ALMANAC - 30 JUNE, 2013
[ Next Day → ]
[ °F ]   °C
We're sorry. There is no daily almanac available for Quezon City, Philippines on 30 June, 2013.
WEATHER BY HOUR - 30 JUNE, 2013
[ °F ]   °C
Local TimeTemperatureDewpointHumidityBarometerVisibilityWind DirectionWind SpeedGust SpeedPrecipitationEventsConditions
12:00 AM26 °C25 °C94 %1003 hPa9 kmNNW (340°)20.4 km/hRainLight Rain
1:00 AM24 °C24 °C100 %1003 hPa4 kmNorth (360°)25.9 km/hRainHeavy Rain
2:00 AM24.4 °C24.4 °C100 %1002.4 hPa6.4 kmNNE (30°)21.6 km/hRainLight Rain
2:00 AM25 °C25 °C100 %1002 hPa6 kmNNE (30°)20.4 km/hRainLight Rain
3:00 AM25 °C25 °C100 %1002.4 hPa6.4 kmCalm (70°)RainLight Rain
3:00 AM25 °C25 °C100 %1002 hPa6.9 kmENE (70°)14.8 km/hRainLight Rain
4:00 AM25.6 °C25 °C96 %1002.4 hPa6.4 kmESE (110°)25.3 km/hRainLight Rain
4:00 AM26 °C25 °C94 %1002 hPa6.9 kmESE (120°)25.9 km/hRainLight Rain
5:00 AM25 °C25 °C100 %1003 hPa6.9 kmESE (110°)22.2 km/h44.4 km/hRainRain
5:00 AM25 °C25 °C100 %1002.7 hPa6.4 kmESE (110°)21.6 km/hRainRain
6:00 AM25 °C25 °C100 %1004.1 hPa6.9 kmESE (110°)22.2 km/hRainLight Rain
7:00 AM26 °C25 °C94 %1005.1 hPa8 kmESE (120°)18.5 km/hRainLight Rain
8:00 AM26.7 °C25.6 °C93 %1006.4 hPa8 kmSE (130°)21.6 km/hRainLight Rain
8:00 AM27 °C26 °C94 %1006.1 hPa8 kmSE (140°)20.4 km/h38.9 km/hRainLight Rain
9:00 AM26 °C25 °C94 %1007.1 hPa9 kmVariable11.1 km/hRainLight Rain
9:00 AM26.1 °C25.6 °C95 %1007.1 hPa9.7 kmSSE (150°)10.8 km/hRainLight Rain
10:00 AM26.1 °C25 °C92 %1007.5 hPa9.7 kmSSE (150°)7.2 km/hRainLight Rain
10:00 AM26 °C25 °C94 %1007.1 hPa10 kmSSE (150°)7.4 km/hRainLight Rain
11:00 AM29 °C24 °C74 %1007.1 hPa10 kmSSE (160°)9.3 km/hMostly Cloudy
11:00 AM29.4 °C24.4 °C69 %1007.5 hPa9.7 kmSouth (170°)7.2 km/hRainLight Rain
12:00 PM31 °C24 °C66 %1007.1 hPa10 kmESE (120°)14.8 km/hScattered Clouds
1:00 PM31 °C25 °C70 %1006.1 hPa10 kmSE (130°)20.4 km/hMostly Cloudy
2:00 PM30.6 °C25 °C66 %1006.4 hPa9.7 kmSE (130°)14.3 km/hHaze
2:00 PM31 °C25 °C70 %1006.1 hPa10 kmSE (130°)14.8 km/hMostly Cloudy
2:25 PM28 °C27 °C94 %1006.1 hPa10 kmSSE (150°)11.1 km/hRainLight Rain
3:00 PM29 °C26 °C84 %1005.1 hPa10 kmSE (130°)14.8 km/hMostly Cloudy
4:00 PM29 °C25 °C79 %1006.1 hPa10 kmSE (130°)18.5 km/hOvercast
4:15 PM28 °C26 °C89 %1006.1 hPaNorthRainLight Rain Showers
4:24 PM28 °C26 °C89 %1006.1 hPaNorthRainLight Rain Showers
5:00 PM27 °C27 °C100 %1006.1 hPa10 kmSSE (160°)7.4 km/hRainLight Rain
5:00 PM27.2 °C26.7 °C95 %1006.8 hPa9.7 kmSSE (160°)7.2 km/hRainLight Rain
6:00 PM27 °C25 °C89 %1007.1 hPa10 kmSSE (150°)7.4 km/hRainLight Rain
7:00 PM27 °C24 °C84 %1007.1 hPa10 kmESE (120°)7.4 km/hMostly Cloudy
8:00 PM27.2 °C25 °C85 %1008.5 hPa9.7 kmSE (140°)7.2 km/hHaze
8:00 PM27 °C25 °C89 %1008.1 hPa10 kmVariable5.6 km/hMostly Cloudy
9:00 PM27 °C25 °C89 %1009.1 hPa10 kmEast (100°)7.4 km/hScattered Clouds
10:00 PM27 °C24 °C84 %1009.1 hPa10 kmEast (90°)9.3 km/hMostly Cloudy
11:00 PM27.2 °C24.4 °C80 %1009.5 hPa9.7 kmEast (90°)7.2 km/hHaze
11:00 PM27 °C24 °C84 %1009.1 hPa10 kmEast (90°)5.6 km/hMostly Cloudy
Hourly data recorded from RPLL, located 0 kilometers away from Quezon City, Philippines







STORIES FROM OUR PARTNERS